Weather History for Massena, NY

Change the Weather History Date:

Thursday, September 19, 2013

  Actual Average Record
Temperature  
Mean Temperature 57 °F 57 °F  
Max Temperature 75 °F 68 °F 87 °F (1955)
Min Temperature 39 °F 46 °F 30 °F (1969)
Degree Days  
Heating Degree Days 8 8  
Month to date heating degree days 141 106  
Since 1 July heating degree days 197 181  
Cooling Degree Days 0 1  
Month to date cooling degree days 30 24  
Year to date cooling degree days 417 360  
Growing Degree Days 7 (Base 50)    
Moisture  
Dew Point 44 °F    
Average Humidity 72    
Maximum Humidity 100    
Minimum Humidity 43    
Precipitation  
Precipitation 0.00 in 0.12 in 0.75 in (1952)
Month to date precipitation 3.73 2.24  
Year to date precipitation 26.85 24.78  
Sea Level Pressure  
Sea Level Pressure 30.11 in    
Wind  
Wind Speed 3 mph (SW)    
Max Wind Speed 13 mph    
Max Gust Speed 16 mph    
Visibility 5 miles    
Events Fog    
T = Trace of Precipitation, MM = Missing Value Source: NWS Daily Summary

Daily Weather History Graph

Daily Weather History Graph

Search for Another Location

Airport:

Trip Planner

Search our weather history database for the weather conditions in past years. The results will help you decide how hot, cold, wet, or windy it might be!

Date:

Astronomy

Sep. 19, 2013 Rise Set
Actual Time 6:43 AM EDT 7:02 PM EDT
Civil Twilight 6:13 AM EDT 7:31 PM EDT
Nautical Twilight 5:39 AM EDT 8:05 PM EDT
Astronomical Twilight 5:03 AM EDT 8:41 PM EDT
Moon 6:55 PM EDT (9/19) 6:51 AM EDT (9/19)
Length of Visible Light 13h 17m
Length of Day
12h 19m
Full, 100% of the Moon is Illuminated
Sep 19
Full
Sep 26
Last Quarter
Oct 4
New
Oct 11
First Quarter
Oct 18
Full

Hourly Weather History & Observations

Time (EDT) Temp. Dew Point Humidity Pressure Visibility Wind Dir Wind Speed Gust Speed Precip Events Conditions
12:53 AM 44.1 °F 41.0 °F 89% 30.14 in 10.0 mi Calm Calm - N/A   Clear
1:04 AM 44.6 °F 42.8 °F 93% 30.13 in 2.5 mi Calm Calm - N/A   Partly Cloudy
1:11 AM 42.8 °F 42.8 °F 100% 30.13 in 1.2 mi Calm Calm - N/A   Partly Cloudy
1:13 AM 44.6 °F 42.8 °F 93% 30.13 in 0.8 mi Calm Calm - N/A   Mist
1:39 AM 42.8 °F 41.0 °F 93% 30.13 in 1.5 mi Calm Calm - N/A   Partly Cloudy
1:41 AM 42.8 °F 41.0 °F 93% 30.13 in 4.0 mi Calm Calm - N/A   Partly Cloudy
1:53 AM 43.0 °F 41.0 °F 93% 30.14 in 7.0 mi Calm Calm - N/A   Clear
2:53 AM 42.1 °F 39.9 °F 92% 30.13 in 2.0 mi Calm Calm - N/A   Clear
3:04 AM 42.8 °F 41.0 °F 93% 30.12 in 4.0 mi Calm Calm - N/A   Clear
3:07 AM 42.8 °F 41.0 °F 93% 30.13 in 1.5 mi Calm Calm - N/A   Clear
3:12 AM 42.8 °F 39.2 °F 87% 30.13 in 0.8 mi Calm Calm - N/A   Clear
3:19 AM 42.8 °F 39.2 °F 87% 30.13 in 0.5 mi Calm Calm - N/A Fog Fog
3:26 AM 42.8 °F 39.2 °F 87% 30.12 in 2.5 mi Calm Calm - N/A   Scattered Clouds
3:33 AM 42.8 °F 39.2 °F 87% 30.12 in 10.0 mi Calm Calm - N/A   Partly Cloudy
3:53 AM 39.9 °F 37.9 °F 93% 30.13 in 6.0 mi Calm Calm - N/A   Clear
4:40 AM 41.0 °F 39.2 °F 93% 30.12 in 1.8 mi Calm Calm - N/A   Clear
4:49 AM 41.0 °F 39.2 °F 93% 30.12 in 4.0 mi Calm Calm - N/A   Clear
4:53 AM 39.9 °F 39.0 °F 97% 30.13 in 10.0 mi Calm Calm - N/A   Clear
5:04 AM 39.2 °F 39.2 °F 100% 30.12 in 2.5 mi Calm Calm - N/A   Scattered Clouds
5:07 AM 39.2 °F 39.2 °F 100% 30.12 in 1.2 mi Calm Calm - N/A   Scattered Clouds
5:14 AM 39.2 °F 39.2 °F 100% 30.12 in 1.2 mi Calm Calm - N/A   Mostly Cloudy
5:16 AM 41.0 °F 39.2 °F 93% 30.12 in 2.0 mi Calm Calm - N/A   Mostly Cloudy
5:24 AM 41.0 °F 39.2 °F 93% 30.12 in 4.0 mi Calm Calm - N/A   Mostly Cloudy
5:29 AM 39.2 °F 39.2 °F 100% 30.12 in 1.8 mi Calm Calm - N/A   Mostly Cloudy
5:32 AM 39.2 °F 39.2 °F 100% 30.12 in 0.8 mi Calm Calm - N/A   Mist
5:53 AM 39.0 °F 37.9 °F 96% 30.13 in 0.8 mi Calm Calm - N/A   Mist
5:58 AM 39.2 °F 37.4 °F 93% 30.12 in 1.5 mi Calm Calm - N/A   Mostly Cloudy
6:11 AM 39.2 °F 37.4 °F 93% 30.12 in 1.2 mi Calm Calm - N/A   Scattered Clouds
6:14 AM 39.2 °F 37.4 °F 93% 30.12 in 2.0 mi Calm Calm - N/A   Scattered Clouds
6:21 AM 41.0 °F 39.2 °F 93% 30.12 in 1.2 mi Calm Calm - N/A   Partly Cloudy
6:23 AM 41.0 °F 39.2 °F 93% 30.12 in 0.8 mi Calm Calm - N/A   Mist
6:35 AM 41.0 °F 39.2 °F 93% 30.13 in 1.2 mi Calm Calm - N/A   Partly Cloudy
6:38 AM 41.0 °F 39.2 °F 93% 30.13 in 0.8 mi Calm Calm - N/A   Mist
6:53 AM 39.9 °F 39.0 °F 97% 30.14 in 1.8 mi Calm Calm - N/A   Partly Cloudy
6:55 AM 39.2 °F 39.2 °F 100% 30.13 in 4.0 mi Calm Calm - N/A   Partly Cloudy
7:53 AM 45.0 °F 43.0 °F 93% 30.15 in 10.0 mi Calm Calm - N/A   Clear
8:53 AM 54.0 °F 48.0 °F 80% 30.14 in 10.0 mi SW 4.6 mph - N/A   Clear
9:53 AM 60.1 °F 51.1 °F 72% 30.14 in 10.0 mi SW 6.9 mph - N/A   Clear
10:53 AM 64.9 °F 53.1 °F 65% 30.13 in 10.0 mi WSW 6.9 mph - N/A   Clear
11:53 AM 69.1 °F 53.1 °F 57% 30.12 in 10.0 mi SW 6.9 mph - N/A   Clear
12:53 PM 72.0 °F 53.1 °F 51% 30.10 in 10.0 mi Variable 5.8 mph - N/A   Clear
1:53 PM 73.0 °F 52.0 °F 48% 30.08 in 10.0 mi WSW 10.4 mph - N/A   Clear
2:53 PM 73.9 °F 52.0 °F 46% 30.06 in 10.0 mi SW 8.1 mph - N/A   Clear
3:53 PM 75.0 °F 52.0 °F 44% 30.04 in 10.0 mi SW 10.4 mph - N/A   Clear
4:53 PM 73.9 °F 51.1 °F 45% 30.04 in 10.0 mi SW 9.2 mph - N/A   Clear
5:53 PM 73.0 °F 53.1 °F 49% 30.04 in 10.0 mi SW 5.8 mph - N/A   Clear
6:53 PM 66.0 °F 55.9 °F 70% 30.04 in 10.0 mi Calm Calm - N/A   Clear
7:53 PM 60.1 °F 55.0 °F 83% 30.05 in 10.0 mi Calm Calm - N/A   Clear
8:53 PM 55.9 °F 54.0 °F 93% 30.06 in 9.0 mi Calm Calm - N/A   Clear
9:53 PM 55.9 °F 53.1 °F 90% 30.06 in 10.0 mi Calm Calm - N/A   Clear
10:53 PM 55.0 °F 52.0 °F 89% 30.05 in 10.0 mi Calm Calm - N/A   Clear
11:53 PM 53.1 °F 51.1 °F 93% 30.04 in 10.0 mi Calm Calm - N/A   Clear